Regional Weather Roundup
Issued by NWS

Home | Current Version | Previous Version | Text Only | Print | Product List | Glossary On
Versions: 1 2 3 4 5 6 7 8 9 10 11 12 13 14 15 16 17 18 19 20 21 22 23 24 25 26 27 28 29 30 31 32 33 34 35 36 37 38 39 40 41 42 43 44 45 46 47 48 49 50
000
ASUS43 KDMX 250301
RWRIA

WEATHER ROUNDUP FOR IOWA
NATIONAL WEATHER SERVICE DES MOINES IA
1000 PM CDT MON APR 24 2017

NOTE: "FAIR" INDICATES FEW OR NO CLOUDS BELOW 12,000 FEET WITH NO
SIGNIFICANT WEATHER AND/OR OBSTRUCTIONS TO VISIBILITY.

* - THESE STATIONS ARE NOT NWS STATIONS...THUS NOT UNDER NWS
QUALITY CONTROL.  THEY ALSO DO NOT REPORT WEATHER SUCH
AS PRECIPITATION OR FOG.

IAZ001>003-012>014-020>022-031>034-043>046-250400-
   NORTHWEST IOWA

CITY           SKY/WX    TMP DP  RH WIND       PRES   REMARKS
CARROLL *      CLOUDY    64  41  42 S12       29.55S
CHEROKEE *     CLOUDY    63  43  47 S8        29.52R
DENISON *      CLOUDY    66  43  42 S14G21    29.55R
LE MARS *      PTCLDY    57  45  62 NW7G13    29.55R
ORANGE CITY *  CLOUDY    55  46  71 W9        29.53R
SHELDON *      CLOUDY    59  43  55 W5        29.50R
SIOUX CITY     MOCLDY    57  44  62 NW17      29.53R
SPENCER        CLOUDY    64  41  42 S14       29.52R
STORM LAKE *   CLOUDY    63  41  45 S14       29.53S
$$

IAZ055>058-069>071-079>083-090>094-250400-
   SOUTHWEST IOWA

CITY           SKY/WX    TMP DP  RH WIND       PRES   REMARKS
ATLANTIC *     CLOUDY    66  41  39 S9        29.56R
AUDUBON *      CLOUDY    64  39  39 S6        29.57S
CLARINDA *     CLOUDY    66  43  42 S12       29.59S
COUNCIL BLFS * MOCLDY    64  45  48 S12G17    29.54R
CRESTON *      CLOUDY    64  37  36 S9        29.60F
HARLAN  *      CLOUDY    66  43  42 S9        29.58R
LAMONI         CLOUDY    64  34  32 S9        29.61S
RED OAK *      CLOUDY    66  43  42 S13       29.56R
SHENANDOAH *   MOCLDY    64  43  45 S13       29.56R
$$

IAZ047>049-059>061-072>074-084-250400-
   CENTRAL IOWA

CITY           SKY/WX    TMP DP  RH WIND       PRES   REMARKS
AMES           PTCLDY    60  35  39 S9        29.58F
ANKENY *       CLEAR     61  32  33 SE6       29.60F
BOONE *        CLOUDY    61  34  36 SE7       29.58S
CHARITON *     CLOUDY    57  36  44 S6        29.62R
DES MOINES     MOCLDY    66  32  28 SE10      29.60S
GRINNELL*      CLEAR     60  33  36 SE10      29.64F
KNOXVILLE *    CLEAR     63  32  31 SE7       29.61S
MARSHALLTOWN   CLEAR     60  34  37 SE10      29.61S
NEWTON *       CLEAR     55  34  44 SE10      29.61S
PELLA *        CLEAR     62  32  32 SE6       29.64S
PERRY *        CLOUDY    62  32  32 S8        29.58S
$$

IAZ004>006-015-016-023>025-035-036-250400-
   NORTH CENTRAL IOWA

CITY           SKY/WX    TMP DP  RH WIND       PRES   REMARKS
ALGONA *       MOCLDY    66  32  28 S15       29.55S
CLARION *      CLOUDY    63  32  31 S14       29.57F
ESTHERVILLE    CLOUDY    61  40  45 S12       29.52S
FORT DODGE *   CLOUDY    66  30  26 S8        29.58R
MASON CITY     PTCLDY    57  33  40 S10       29.60S
FOREST CITY *    N/A     54  34  47 SE9       29.57F
WEBSTER CITY * CLOUDY    63  32  31 S12       29.56S
IOWA FALLS *     N/A     58  32  37 SE8       29.61S
$$

IAZ007>011-017>019-026>030-037>042-050>054-066-250400-
   NORTHEAST IOWA

CITY           SKY/WX    TMP DP  RH WIND       PRES   REMARKS
CEDAR RAPIDS   CLEAR     64  31  28 S7        29.65R
CHARLES CITY * PTCLDY    63  28  27 S14       29.62S
CLINTON *      MOCLDY    63  33  32 SE13      29.68
DECORAH *      CLOUDY    64  32  29 S9G17     29.64R
DUBUQUE        PTCLDY    63  31  30 SE8       29.68R
MONTICELLO *   MOCLDY    64  32  29 SE8       29.66S
WATERLOO       CLEAR     62  30  29 SE9       29.63R
$$

IAZ064-065-067-068-078-250400-
   EAST CENTRAL IOWA

CITY           SKY/WX    TMP DP  RH WIND       PRES   REMARKS
DAVENPORT      MOCLDY    64  29  26 SE9       29.68R
IOWA CITY      PTCLDY    63  33  32 SE3       29.68R
MUSCATINE *    MOCLDY    63  30  29 S5        29.67R
QUAD CITIES    PTCLDY    62  32  32 SE9       29.67S
$$

IAZ062-063-075>077-085>089-095>099-250400-
   SOUTHEAST IOWA

CITY           SKY/WX    TMP DP  RH WIND       PRES   REMARKS
BURLINGTON     PTCLDY    59  33  37 S7        29.67R
FAIRFIELD *    CLEAR     61  30  31 SE9       29.66R
FORT MADISON * PTCLDY    64  30  27 SE7       29.68R
KEOKUK *       CLEAR     64  30  27 S6        29.67R
OSKALOOSA *      N/A     59  31  35 SE10      29.65R
OTTUMWA        CLEAR     61  32  33 SE8       29.64R
WASHINGTON *   CLEAR     59  32  36 S7        29.68R
$$

ABBREVIATIONS USED IN REMARKS
   TC - TEMPERATURES IN CELSIUS
  WCI - WIND CHILL INDEX
   HX - HEAT INDEX
  VSB - VISIBILITY
$$




USA.gov is the U.S. government's official web portal to all federal, state and local government web resources and services.